Home   Weather   Yellowknife   Past weeks
Flag for Canada

Past Weather in Yellowknife, Northwest Territories, Canada — Yesterday and Last 2 Weeks

Now
70 °F

Passing clouds.


Feels Like: 70 °F
Forecast: 68 / 53 °F
Wind: 10 mph from Southeast

Location: Yellowknife

Current Time: Jun 15, 2019 at 4:54:06 pm

Latest Report: Jun 15, 2019 at 4:00 pm


Visibility: 15 mi

Pressure: 29.95 "Hg

Humidity: 53%

Dew Point: 52 °F

Location of YellowknifeLocation

Past Weather in Yellowknife — Graph

°F

Yellowknife Temperature Yesterday

Maximum temperature yesterday: 72 °F (at 3:00 pm)
Minimum temperature yesterday: 54 °F (at 4:00 am)
Average temperature yesterday: 65 °F

High & Low Weather Summary for the Past Weeks

 TemperatureHumidityPressure
High72 °F (Jun 13, 2:00 pm)100% (Jun 2, 11:12 am)30.22 "Hg (Jun 2, 11:12 am)
Low32 °F (Jun 10, 2:00 am)34% (Jun 11, 9:00 am)29.50 "Hg (Jun 2, 10:00 am)
Average48 °F73%29.87 "Hg
* Reported May 31 3:00 pm — Jun 15 3:00 pm, Yellowknife. Weather by CustomWeather, © 2019

Note: Actual official high and low records may vary slightly from our data, if they occured in-between our weather recording intervals... More about our weather records

Advertising

Yellowknife Weather History for the Previous 24 Hours

Scroll right to see more
 ConditionsComfort  
Time TempWeatherWind HumidityBarometerVisibility
3:00 pm
Sat, Jun 15
68 °FPassing clouds.9 mph56%29.96 "Hg15 mi
2:00 pm66 °FPassing clouds.9 mph56%29.96 "Hg15 mi
1:00 pm66 °FPassing clouds.10 mph56%29.96 "Hg15 mi
12:00 pm66 °FPassing clouds.9 mph60%29.96 "Hg15 mi
11:00 am64 °FPassing clouds.5 mph68%29.96 "Hg15 mi
10:00 am63 °FPassing clouds.7 mph73%29.95 "Hg15 mi
9:00 am63 °FPassing clouds.8 mph73%29.95 "Hg15 mi
8:00 am59 °FPassing clouds.6 mph77%29.95 "Hg15 mi
7:00 am57 °FPassing clouds.6 mph77%29.94 "Hg15 mi
6:00 am55 °FSunny.8 mph77%29.93 "Hg15 mi
5:00 am55 °FSunny.7 mph77%29.92 "Hg15 mi
4:00 am54 °FSunny.6 mph77%29.91 "Hg15 mi
3:00 am55 °FClear.6 mph72%29.90 "Hg15 mi
2:00 am57 °FClear.5 mph63%29.90 "Hg15 mi
1:00 am59 °FClear.5 mph55%29.89 "Hg15 mi
12:00 am59 °FPassing clouds.6 mph55%29.88 "Hg15 mi
11:00 pm
Fri, Jun 14
63 °FPassing clouds.7 mph49%29.87 "Hg15 mi
10:00 pm66 °FPassing clouds.13 mph43%29.86 "Hg15 mi
9:00 pm70 °FPassing clouds.8 mph38%29.85 "Hg15 mi
8:00 pm70 °FPassing clouds.9 mph40%29.84 "Hg15 mi
7:00 pm72 °FPassing clouds.13 mph38%29.84 "Hg15 mi
6:00 pm72 °FPassing clouds.14 mph38%29.83 "Hg15 mi
5:00 pm72 °FPassing clouds.14 mph38%29.83 "Hg15 mi
4:00 pm72 °FScattered clouds.10 mph41%29.81 "Hg15 mi
Weather by CustomWeather, © 2019

See weather overview